{"data":{"norad_id":47590,"intl_designator":"2021-009AU","name":"STARLINK-1995","alt_names":[],"object_type":"PAYLOAD","status":"ACTIVE","operator":null,"country":"US","launch_date":"2021-02-04","launch_site_code":"AFETR","launch_vehicle":null,"mission":null,"orbit_class":"UNKNOWN","rcs_meters":null,"size_class":null,"mass_kg":null,"dimensions":null,"purposes":["comms"],"wikipedia_slug":null,"has_3d_model":false,"image_url":null,"decayed_at":null,"tle_current":{"epoch":"2026-05-24T19:21:22.559040Z","epoch_age_seconds":91885,"freshness":"FRESH","line1":"1 47590U 21009AU  26144.80651110  .00088567  00000+0  66743-3 0  9998","line2":"2 47590  53.0402   6.2305 0001791 120.7026 239.4168 15.71790783292748","mean_motion":15.71790783,"eccentricity":0.0001791,"inclination_deg":53.0402,"raan_deg":6.2305,"arg_perigee_deg":120.7026,"mean_anomaly_deg":239.4168,"bstar":0.00066743,"rev_number":29274,"period_min":91.615246480294,"perigee_km":352.5732296282,"apogee_km":354.98460190923,"semimajor_km":6731.9159157687,"source":"CELESTRAK","updated_at":"2026-05-25T13:38:16.558103Z"}}}